GW3838 Weather Reports


time (UTC)temp
C
wind
direction
speed
KPH
gust
KPH
rain 1hr
cm
rain 24hr
cm
rain mn
cm
humidity
%
barometer
mb
20260506190527 31 216 6.4 9.7 0.00 0.00 0.00 44 1020.6
20260506190024 31 206 6.4 14.5 0.00 0.00 0.00 44 1020.6
20260506185522 30 307 6.4 11.3 0.00 0.00 0.00 44 1020.6
20260506185018 31 179 4.8 17.7 0.00 0.00 0.00 44 1020.8
20260506184515 31 243 4.8 11.3 0.00 0.00 0.00 44 1020.4
20260506184012 30 177 14.5 22.5 0.00 0.00 0.00 45 1020.9
20260506183508 30 212 4.8 12.9 0.00 0.00 0.00 44 1020.7
20260506183006 30 223 3.2 9.7 0.00 0.00 0.00 45 1020.8
20260506182502 30 222 6.4 14.5 0.00 0.00 0.00 45 1021.1
20260506181959 30 217 4.8 12.9 0.00 0.00 0.00 44 1021.1
20260506181457 30 230 11.3 14.5 0.00 0.00 0.00 43 1021.4
20260506180954 30 227 9.7 16.1 0.00 0.00 0.00 44 1021.1
20260506180450 30 244 8.0 20.9 0.00 0.00 0.00 46 1021.4
20260506175946 30 185 14.5 17.7 0.00 0.00 0.00 45 1021.5
20260506175443 30 222 12.9 14.5 0.00 0.00 0.00 44 1021.4
20260506174939 30 242 8.0 11.3 0.00 0.00 0.00 45 1021.7
20260506174438 30 243 9.7 11.3 0.00 0.00 0.00 45 1021.8
20260506173934 29 353 4.8 11.3 0.00 0.00 0.00 48 1021.6
20260506173432 30 242 6.4 11.3 0.00 0.00 0.00 46 1021.9
20260506172929 30 283 6.4 11.3 0.00 0.00 0.00 47 1021.9
20260506172426 29 185 8.0 11.3 0.00 0.00 0.00 48 1022.0
20260506171922 29 173 11.3 20.9 0.00 0.00 0.00 47 1022.0
20260506171420 29 276 8.0 17.7 0.00 0.00 0.00 47 1022.0
20260506170917 28 280 4.8 14.5 0.00 0.00 0.00 48 1022.3
20260506170413 28 290 6.4 12.9 0.00 0.00 0.00 48 1022.1
20260506165912 28 139 6.4 14.5 0.00 0.00 0.00 48 1022.4
20260506165410 28 227 3.2 12.9 0.00 0.00 0.00 51 1022.3
20260506164906 28 294 8.0 11.3 0.00 0.00 0.00 49 1022.4
20260506164403 28 225 8.0 12.9 0.00 0.00 0.00 50 1022.5
20260506163901 28 199 4.8 12.9 0.00 0.00 0.00 51 1022.6
20260506163355 27 244 9.7 17.7 0.00 0.00 0.00 51 1022.6
20260506162850 28 201 9.7 16.1 0.00 0.00 0.00 51 1022.7
20260506162349 27 230 11.3 14.5 0.00 0.00 0.00 51 1023.1
20260506161846 26 271 3.2 9.7 0.00 0.00 0.00 54 1022.9
20260506161343 27 204 8.0 17.7 0.00 0.00 0.00 53 1023.0
20260506160841 27 159 4.8 12.9 0.00 0.00 0.00 55 1023.0
20260506160337 27 313 8.0 17.7 0.00 0.00 0.00 55 1022.9
20260506155836 26 222 11.3 16.1 0.00 0.00 0.00 57 1023.2
20260506155332 26 255 9.7 12.9 0.00 0.00 0.00 58 1022.7
20260506153444 25 164 4.8 11.3 0.00 0.00 0.00 58 1022.9
20260506152942 25 195 6.4 16.1 0.00 0.00 0.00 59 1023.1
20260506152438 26 204 14.5 16.1 0.00 0.00 0.00 58 1022.9
20260506151937 26 211 8.0 11.3 0.00 0.00 0.00 58 1023.0
20260506151434 25 232 6.4 20.9 0.00 0.00 0.00 59 1022.6
20260506150932 26 195 9.7 14.5 0.00 0.00 0.00 58 1022.9
20260506150427 26 197 6.4 12.9 0.00 0.00 0.00 58 1022.7
20260506145925 25 214 9.7 14.5 0.00 0.00 0.00 60 1022.8
20260506145421 25 204 4.8 11.3 0.00 0.00 0.00 61 1022.8
20260506144918 24 199 12.9 14.5 0.00 0.00 0.00 63 1022.7
20260506144414 24 197 4.8 14.5 0.00 0.00 0.00 64 1022.6
20260506143914 24 217 9.7 11.3 0.00 0.00 0.00 64 1023.0
20260506143410 25 181 6.4 11.3 0.00 0.00 0.00 63 1023.0
20260506142908 24 215 4.8 8.0 0.00 0.00 0.00 63 1023.1
20260506142406 24 197 8.0 11.3 0.00 0.00 0.00 64 1023.1
20260506141904 25 191 4.8 9.7 0.00 0.00 0.00 64 1023.0
20260506141401 24 198 4.8 11.3 0.00 0.00 0.00 65 1022.8
20260506140859 23 231 4.8 9.7 0.00 0.00 0.00 66 1022.8
20260506140356 23 223 3.2 9.7 0.00 0.00 0.00 66 1022.6
20260506135853 23 265 9.7 12.9 0.00 0.00 0.00 66 1022.5
20260506135350 23 218 4.8 12.9 0.00 0.00 0.00 66 1022.7
20260506134846 23 224 6.4 9.7 0.00 0.00 0.00 67 1022.8
20260506134342 23 222 4.8 12.9 0.00 0.00 0.00 66 1022.5
20260506133840 23 224 4.8 8.0 0.00 0.00 0.00 67 1022.5
20260506133336 23 202 3.2 8.0 0.00 0.00 0.00 69 1022.3
20260506132833 22 172 6.4 11.3 0.00 0.00 0.00 69 1022.7
20260506132330 22 225 14.5 17.7 0.00 0.00 0.00 69 1022.6
20260506131828 22 226 4.8 9.7 0.00 0.00 0.00 72 1022.4
20260506131324 21 232 6.4 12.9 0.00 0.00 0.00 72 1022.4
20260506130822 21 171 1.6 11.3 0.00 0.00 0.00 74 1022.4
20260506130318 21 216 8.0 11.3 0.00 0.00 0.00 75 1022.4
20260506125816 21 212 3.2 4.8 0.00 0.00 0.00 76 1022.2
20260506125314 20 165 1.6 4.8 0.00 0.00 0.00 77 1022.1
20260506124812 20 202 6.4 11.3 0.00 0.00 0.00 78 1022.4
20260506124309 20 217 3.2 11.3 0.00 0.00 0.00 79 1022.1
20260506123806 19 184 4.8 8.0 0.00 0.00 0.00 80 1022.1
20260506123305 19 220 4.8 8.0 0.00 0.00 0.00 80 1022.1
20260506122801 19 157 4.8 8.0 0.00 0.00 0.00 81 1021.9
20260506122258 18 187 6.4 11.3 0.00 0.00 0.00 81 1021.8
20260506121756 18 222 3.2 3.2 0.00 0.00 0.00 82 1022.2
20260506121253 18 176 3.2 8.0 0.00 0.00 0.00 83 1022.0
20260506120750 18 187 3.2 8.0 0.00 0.00 0.00 83 1022.1
20260506120248 18 228 4.8 4.8 0.00 0.00 0.00 83 1022.0
20260506115745 17 170 1.6 8.0 0.00 0.00 0.00 85 1021.9
20260506115244 17 175 1.6 3.2 0.00 0.00 0.00 85 1021.7
20260506114741 17 224 4.8 9.7 0.00 0.00 0.00 86 1021.9
20260506114239 16 185 3.2 9.7 0.00 0.00 0.00 88 1021.5
20260506113737 16 221 4.8 4.8 0.00 0.00 0.00 89 1021.4
20260506113234 16 194 3.2 8.0 0.00 0.00 0.00 90 1021.5
20260506112730 16 184 4.8 4.8 0.00 0.00 0.00 91 1021.4
20260506112228 15 178 3.2 3.2 0.00 0.00 0.00 92 1021.4
20260506111725 15 173 3.2 8.0 0.00 0.00 0.00 93 1021.4
20260506111223 15 167 1.6 3.2 0.00 0.00 0.00 93 1021.5
20260506110720 15 162 1.6 1.6 0.00 0.00 0.00 93 1021.4
20260506110218 15 161 0.0 0.0 0.00 0.00 0.00 93 1021.4
20260506105714 15 161 0.0 0.0 0.00 0.00 0.00 93 1021.4
20260506105211 15 164 1.6 1.6 0.00 0.00 0.00 93 1021.4
20260506104709 15 163 0.0 1.6 0.00 0.00 0.00 93 1021.4
20260506104206 15 165 1.6 1.6 0.00 0.00 0.00 93 1021.1
20260506103703 14 155 0.0 1.6 0.00 0.00 0.00 93 1021.0
20260506103200 14 155 0.0 0.0 0.00 0.00 0.00 92 1021.0
20260506102658 15 155 0.0 1.6 0.00 0.00 0.00 92 1021.0
20260506102156 15 177 0.0 1.6 0.00 0.00 0.00 92 1021.0
20260506101652 15 177 0.0 1.6 0.00 0.00 0.00 92 1021.3
20260506101149 15 177 1.6 1.6 0.00 0.00 0.00 92 1021.2
20260506100648 15 177 0.0 1.6 0.00 0.00 0.00 92 1021.1
20260506100145 15 178 1.6 1.6 0.00 0.00 0.00 92 1021.1
20260506095644 15 175 1.6 1.6 0.00 0.00 0.00 92 1021.3
20260506095140 15 175 0.0 1.6 0.00 0.00 0.00 91 1021.3
20260506094637 15 175 1.6 1.6 0.00 0.00 0.00 91 1021.3
20260506094135 15 176 1.6 3.2 0.00 0.00 0.00 91 1021.4
20260506093633 15 175 1.6 1.6 0.00 0.00 0.00 91 1021.4
20260506093130 15 173 0.0 1.6 0.00 0.00 0.00 91 1021.3
20260506092628 15 173 0.0 0.0 0.00 0.00 0.00 91 1021.3
20260506092125 15 173 0.0 1.6 0.00 0.00 0.00 90 1021.2
20260506091623 15 174 1.6 1.6 0.00 0.00 0.00 90 1021.2
20260506091120 15 173 0.0 1.6 0.00 0.00 0.00 90 1021.2
20260506090618 15 175 1.6 3.2 0.00 0.00 0.00 90 1021.1
20260506090114 15 172 1.6 3.2 0.00 0.00 0.00 89 1021.4
20260506085611 15 156 1.6 1.6 0.00 0.00 0.00 89 1021.5
20260506085107 16 167 3.2 3.2 0.00 0.00 0.00 88 1021.4
20260506084604 16 168 3.2 4.8 0.00 0.00 0.00 88 1021.4
20260506084101 16 165 1.6 1.6 0.00 0.00 0.00 88 1021.5
20260506083558 16 176 1.6 3.2 0.00 0.00 0.00 88 1021.4
20260506083055 16 178 3.2 4.8 0.00 0.00 0.00 88 1021.2
20260506082552 16 161 3.2 3.2 0.00 0.00 0.00 88 1021.2
20260506082047 16 183 3.2 4.8 0.00 0.00 0.00 87 1021.3
20260506081546 16 178 4.8 8.0 0.00 0.00 0.00 87 1021.1
20260506081043 16 173 4.8 4.8 0.00 0.00 0.00 87 1021.2
20260506080541 16 170 3.2 8.0 0.00 0.00 0.00 87 1021.3
20260506073524 16 178 4.8 8.0 0.00 0.00 0.00 86 1021.1
20260506073021 16 201 6.4 8.0 0.00 0.00 0.00 86 1021.0
20260506072518 16 176 4.8 8.0 0.00 0.00 0.00 86 1021.0
20260506072016 16 178 6.4 9.7 0.00 0.00 0.00 86 1021.0
20260506071514 16 173 3.2 8.0 0.00 0.00 0.00 86 1021.2
20260506071010 16 170 4.8 4.8 0.00 0.00 0.00 85 1021.0
20260506070508 16 188 6.4 8.0 0.00 0.00 0.00 85 1020.9
20260506062445 17 182 9.7 11.3 0.00 0.00 0.00 84 1021.5
20260506061941 17 203 6.4 9.7 0.00 0.00 0.00 83 1021.2
20260506061437 17 193 6.4 11.3 0.00 0.00 0.00 83 1021.4
20260506060936 17 187 11.3 12.9 0.00 0.00 0.00 84 1021.5
20260506060434 17 177 6.4 9.7 0.00 0.00 0.00 84 1021.6
20260506051405 17 169 6.4 8.0 0.00 0.00 0.00 82 1021.9
20260506050902 17 197 8.0 8.0 0.00 0.00 0.00 82 1022.2
20260506050400 17 182 4.8 8.0 0.00 0.00 0.00 82 1022.2
20260506044850 17 169 6.4 9.7 0.00 0.00 0.00 81 1022.2
20260506044348 17 169 6.4 9.7 0.00 0.00 0.00 81 1022.3
20260506043845 17 152 6.4 9.7 0.00 0.00 0.00 80 1022.3
20260506043342 17 174 4.8 9.7 0.00 0.00 0.00 80 1022.5
20260506042840 17 165 8.0 8.0 0.00 0.00 0.00 80 1022.4
20260506042339 18 179 8.0 9.7 0.00 0.00 0.00 80 1022.6
20260506041838 18 194 8.0 11.3 0.00 0.00 0.00 79 1022.6
20260506041334 18 184 8.0 9.7 0.00 0.00 0.00 79 1022.1
20260506040831 18 202 8.0 11.3 0.00 0.00 0.00 78 1022.3
20260506040329 18 200 8.0 9.7 0.00 0.00 0.00 78 1022.4
20260506035825 18 179 8.0 9.7 0.00 0.00 0.00 78 1022.2
20260506035323 18 177 8.0 11.3 0.00 0.00 0.00 78 1022.3
20260506034820 18 171 8.0 11.3 0.00 0.00 0.00 77 1022.1
20260506034317 18 189 9.7 12.9 0.00 0.00 0.00 77 1022.1
20260506033814 18 168 8.0 11.3 0.00 0.00 0.00 77 1022.2
20260506033311 18 188 8.0 11.3 0.00 0.00 0.00 76 1022.2
20260506032807 18 172 6.4 8.0 0.00 0.00 0.00 76 1022.4
20260506032306 18 182 6.4 9.7 0.00 0.00 0.00 75 1022.3
20260506031801 18 187 8.0 12.9 0.00 0.00 0.00 75 1022.4
20260506031258 19 185 8.0 14.5 0.00 0.00 0.00 74 1022.1
20260506030756 19 172 9.7 14.5 0.00 0.00 0.00 74 1022.0
20260506030254 19 178 8.0 12.9 0.00 0.00 0.00 74 1022.3
20260506025751 19 192 11.3 11.3 0.00 0.00 0.00 73 1022.2
20260506025247 19 177 8.0 12.9 0.00 0.00 0.00 73 1022.4
20260506024744 19 180 12.9 16.1 0.00 0.00 0.00 72 1022.4
20260506024240 20 171 8.0 14.5 0.00 0.00 0.00 72 1022.4
20260506023736 20 175 9.7 14.5 0.00 0.00 0.00 71 1022.1
20260506023234 20 184 12.9 17.7 0.00 0.00 0.00 71 1022.3
20260506022730 20 170 9.7 11.3 0.00 0.00 0.00 71 1022.2
20260506022228 20 146 11.3 14.5 0.00 0.00 0.00 70 1022.0
20260506021726 20 174 14.5 14.5 0.00 0.00 0.00 70 1021.9
20260506021223 20 190 9.7 16.1 0.00 0.00 0.00 69 1022.0
20260506020720 20 174 12.9 17.7 0.00 0.00 0.00 68 1021.7
20260506020218 20 146 12.9 20.9 0.00 0.00 0.00 68 1021.7
20260506015715 20 160 11.3 16.1 0.00 0.00 0.00 68 1021.9
20260506015213 20 171 11.3 14.5 0.00 0.00 0.00 67 1022.0
20260506014709 20 193 17.7 20.9 0.00 0.00 0.00 67 1021.8
20260506014205 21 170 12.9 20.9 0.00 0.00 0.00 66 1021.7
20260506013703 21 165 11.3 14.5 0.00 0.00 0.00 66 1021.7
20260506013200 21 172 11.3 14.5 0.00 0.00 0.00 66 1021.4
20260506012656 21 168 12.9 16.1 0.00 0.00 0.00 66 1021.6
20260506012153 21 176 12.9 17.7 0.00 0.00 0.00 65 1021.5
20260506011651 21 166 11.3 16.1 0.00 0.00 0.00 65 1021.2
20260506011146 21 151 11.3 16.1 0.00 0.00 0.00 65 1021.2
20260506010645 21 159 8.0 12.9 0.00 0.00 0.00 65 1021.1
20260506010142 21 170 11.3 16.1 0.00 0.00 0.00 64 1021.1
20260506005639 21 169 16.1 20.9 0.00 0.00 0.00 64 1021.2
20260506005136 22 167 14.5 22.5 0.00 0.00 0.00 64 1021.2
20260506004632 22 179 14.5 17.7 0.00 0.00 0.00 64 1021.0
20260506004130 22 126 14.5 27.4 0.00 0.00 0.00 63 1021.1
20260506003626 22 138 8.0 12.9 0.00 0.00 0.00 63 1021.0
20260506003122 22 169 17.7 22.5 0.00 0.00 0.00 63 1020.9
20260506002618 22 140 6.4 20.9 0.00 0.00 0.00 62 1020.7
20260506002114 22 183 12.9 17.7 0.00 0.00 0.00 62 1020.6
20260506001610 23 146 9.7 22.5 0.00 0.00 0.00 62 1020.6
20260506001107 23 162 20.9 25.7 0.00 0.00 0.00 61 1020.4
20260506000605 23 172 14.5 20.9 0.00 0.00 0.00 61 1020.4
20260505235600 23 146 12.9 22.5 0.00 0.00 0.00 60 1020.4
20260505235057 23 125 12.9 17.7 0.00 0.00 0.00 60 1020.5
20260505234554 24 162 11.3 17.7 0.00 0.00 0.00 60 1020.3
20260505234050 24 167 8.0 17.7 0.00 0.00 0.00 59 1020.3
20260505233548 25 176 8.0 11.3 0.00 0.00 0.00 58 1020.0
20260505233045 25 121 16.1 20.9 0.00 0.00 0.00 57 1020.2
20260505232543 25 138 16.1 24.1 0.00 0.00 0.00 56 1020.2
20260505232040 25 156 12.9 16.1 0.00 0.00 0.00 55 1020.3
20260505231537 25 173 12.9 22.5 0.00 0.00 0.00 54 1020.4
20260505231036 25 166 11.3 16.1 0.00 0.00 0.00 53 1020.3
20260505230533 26 151 12.9 16.1 0.00 0.00 0.00 52 1020.2
20260505230029 26 173 20.9 24.1 0.00 0.00 0.00 51 1020.1
20260505225526 26 173 11.3 14.5 0.00 0.00 0.00 49 1020.4
20260505225022 26 176 9.7 17.7 0.00 0.00 0.00 49 1020.4
20260505224519 27 184 12.9 16.1 0.00 0.00 0.00 47 1020.0
20260505224016 27 176 9.7 11.3 0.00 0.00 0.00 38 1020.4
20260505223513 27 197 6.4 9.7 0.00 0.00 0.00 36 1020.3
20260505223010 27 167 6.4 17.7 0.00 0.00 0.00 37 1020.2
20260505222506 27 196 12.9 16.1 0.00 0.00 0.00 37 1020.3
20260505222001 27 184 9.7 11.3 0.00 0.00 0.00 37 1020.3
20260505221459 27 209 4.8 9.7 0.00 0.00 0.00 37 1020.1
20260505220956 27 177 8.0 14.5 0.00 0.00 0.00 36 1020.1
20260505220453 27 121 6.4 14.5 0.00 0.00 0.00 37 1020.0
20260505215951 27 155 14.5 22.5 0.00 0.00 0.00 37 1020.0
20260505215449 28 175 12.9 14.5 0.00 0.00 0.00 36 1020.2
20260505214946 28 193 14.5 20.9 0.00 0.00 0.00 35 1020.1
20260505214444 28 224 6.4 12.9 0.00 0.00 0.00 35 1020.4
20260505213941 28 201 8.0 9.7 0.00 0.00 0.00 36 1020.3
20260505213439 28 193 8.0 12.9 0.00 0.00 0.00 36 1020.2
20260505212935 28 180 4.8 11.3 0.00 0.00 0.00 37 1020.3
20260505212432 28 198 11.3 14.5 0.00 0.00 0.00 37 1020.3
20260505211928 27 228 14.5 14.5 0.00 0.00 0.00 37 1020.5
20260505211426 28 248 6.4 8.0 0.00 0.00 0.00 36 1020.3
20260505210922 28 226 9.7 11.3 0.00 0.00 0.00 36 1020.4
20260505210419 28 261 8.0 11.3 0.00 0.00 0.00 36 1020.4
20260505205916 28 170 11.3 16.1 0.00 0.00 0.00 37 1020.4
20260505205414 28 159 11.3 16.1 0.00 0.00 0.00 36 1020.2
20260505204911 28 160 16.1 17.7 0.00 0.00 0.00 36 1020.4
20260505204408 27 190 8.0 20.9 0.00 0.00 0.00 37 1020.5
20260505203906 27 142 12.9 16.1 0.00 0.00 0.00 36 1020.7
20260505203402 27 156 8.0 14.5 0.00 0.00 0.00 37 1020.4
20260505202858 27 178 11.3 14.5 0.00 0.00 0.00 37 1020.4
20260505202355 28 168 11.3 16.1 0.00 0.00 0.00 36 1020.6
20260505201851 27 112 11.3 17.7 0.00 0.00 0.00 36 1020.7
20260505201349 28 166 14.5 22.5 0.00 0.00 0.00 36 1021.0
20260505200847 28 146 6.4 9.7 0.00 0.00 0.00 35 1020.8
20260505200344 28 197 11.3 14.5 0.00 0.00 0.00 35 1021.0
20260505195839 28 282 6.4 9.7 0.00 0.00 0.00 36 1021.1
20260505195336 27 114 1.6 3.2 0.00 0.00 0.00 35 1020.9
20260505194833 27 254 4.8 8.0 0.00 0.00 0.00 37 1021.4
20260505194331 28 232 14.5 22.5 0.00 0.00 0.00 35 1021.4
20260505193826 27 193 12.9 14.5 0.00 0.00 0.00 36 1021.4
20260505193324 27 181 9.7 12.9 0.00 0.00 0.00 37 1021.6
20260505192821 27 225 6.4 12.9 0.00 0.00 0.00 37 1021.7
20260505192320 27 149 8.0 12.9 0.00 0.00 0.00 38 1021.8
20260505191817 27 169 11.3 16.1 0.00 0.00 0.00 37 1021.6
20260505191315 27 174 11.3 17.7 0.00 0.00 0.00 37 1022.0
20260505190812 26 164 4.8 8.0 0.00 0.00 0.00 39 1021.9